Location: *
(46.1358°N, 3.2200°E)
Time: 06:49:43
(UTC+00:00)

Daily predictions for brighter satellites

Satellite Brightness Start Highest point End
(mag) Time Altitude Azimuth Time Altitude Azimuth Time Altitude Azimuth
Cosmos 1842 Rocket 3.6 16:42:25 10° S 16:46:51 65° E 16:51:18 10° NNE
Okean-O 3.4 16:43:06 10° SE 16:47:00 31° ENE 16:50:56 10° N
Cosmos 1340 Rocket 3.2 16:44:01 10° SSW 16:48:01 69° WNW 16:52:05 10° N
Cosmos 1437 2.7 16:49:55 10° NNW 16:53:00 83° W 16:56:04 10° S
BREEZE-M DEB (TANK) 2.9 16:49:02 10° W 16:54:00 52° NNW 16:56:22 10° ENE
Cosmos 1633 4.2 16:52:27 10° NNE 16:54:33 14° ENE 16:56:37 10° ESE
Cosmos 2219 3.3 16:50:03 10° NNW 16:55:36 57° ENE 17:01:07 10° SE
CZ-4B R/B 4.1 16:53:38 10° NNW 16:56:09 20° WNW 16:58:41 10° WSW
Cosmos 1869 4.3 16:53:29 10° SSE 16:56:47 26° E 17:00:05 10° NNE
TELKOM 3 2.9 16:56:45 10° WNW 16:58:54 49° NNE 17:00:51 11° E
Cosmos 2369 Rocket 4.2 16:54:41 10° W 16:58:54 21° NW 17:03:10 10° N
USA 215 4.0 16:53:43 10° ENE 16:59:35 37° N 17:05:28 10° NW
CZ-4 R/B 2.7 16:57:23 10° ESE 17:00:23 20° ENE 17:03:21 10° NNE
Cosmos 2233 Rocket 4.0 16:55:01 10° N 17:01:21 72° E 17:07:37 10° SSE
USA 229 DEB 4.0 16:58:16 10° S 17:04:24 44° ESE 17:10:48 10° NE
USA 229 4.1 16:58:24 10° S 17:04:30 44° ESE 17:10:53 10° NE
Cosmos 1743 Rocket 3.6 17:02:10 10° N 17:06:32 85° W 17:10:54 10° S
Cosmos 1805 Rocket 4.0 17:02:43 10° N 17:06:49 39° ENE 17:10:55 10° SE
Envisat 3.3 17:04:09 10° SE 17:08:54 42° ENE 17:13:41 10° N
NOSS 3-1 (A) 4.3 17:05:34 10° SSE 17:10:00 25° ESE 17:14:23 12° ENE
AQUARIUS 4.1 17:06:07 10° SSE 17:10:37 79° ENE 17:15:07 10° N
NOSS 3-1 (C) 3.8 17:05:33 10° S 17:10:38 40° ESE 17:16:23 10° NE
Cosmos 1455 4.2 17:08:29 10° SW 17:11:51 30° WNW 17:15:13 10° N
Cosmos 1980 Rocket 4.0 17:13:26 10° ESE 17:14:49 11° E 17:14:49 11° E
YAOGAN 6 3.5 17:12:24 10° SE 17:15:17 24° ENE 17:18:09 10° NNE
Cosmos 2227 Rocket 2.3 17:11:03 10° NNW 17:16:37 53° ENE 17:22:08 10° SE
Cosmos 2297 Rocket 2.3 17:11:20 10° NNW 17:16:56 57° ENE 17:22:29 10° SE
Okean O Rocket 4.0 17:13:15 10° SSW 17:17:00 27° W 17:20:46 10° NW
Cosmos 2344 3.9 17:10:30 10° SW 17:17:56 66° NW 17:26:19 10° NE
CORIOLIS 4.1 17:13:07 10° SSE 17:18:30 85° ENE 17:23:59 10° NNW
Cosmos 1464 Rocket 4.3 17:17:07 10° N 17:22:59 43° ENE 17:28:45 10° SE
SeaSat 1 2.4 17:19:04 10° SE 17:23:59 75° ENE 17:28:55 10° NNW
H-2A R/B 3.2 17:26:32 10° S 17:30:22 65° W 17:34:12 10° NNW
Cosmos 2369 4.4 17:27:59 10° SSE 17:32:53 31° ESE 17:36:23 17° NE
Meteor 2-20 4.4 17:27:23 10° S 17:33:29 75° E 17:39:38 10° NNE
Geosat 4.0 17:31:43 10° NNE 17:36:47 86° ESE 17:41:49 10° SSW
Cosmos 1633 Rocket 3.6 17:32:56 10° N 17:37:01 36° ENE 17:41:06 10° SE
Meteor 2-2 Rocket 4.3 17:32:26 10° S 17:38:20 89° E 17:44:08 10° N
Genesis I 3.7 17:34:49 10° SW 17:38:47 60° NW 17:42:05 14° NNE
Cosmos 2263 Rocket 3.8 17:37:49 10° N 17:40:56 15° NE 17:41:12 15° NE
SMAP 4.2 17:38:08 10° S 17:42:37 46° W 17:47:07 10° NNW
Cosmos 2082 3.8 17:38:12 10° NNW 17:43:43 54° ENE 17:49:13 10° SE
Cosmos 1680 Rocket 4.3 17:39:23 10° SSE 17:43:51 30° E 17:45:41 24° ENE
COSMO-SKYMED 1 2.6 17:40:22 10° NNE 17:44:39 54° E 17:48:54 10° S
ERBS 3.0 17:43:55 10° SSW 17:46:56 33° SE 17:47:20 32° ESE
Cosmos 1862 3.5 17:43:06 10° N 17:46:57 45° ENE 17:50:46 10° SSE
Cosmos 1666 Rocket 3.6 17:43:20 10° N 17:47:40 55° ENE 17:51:56 10° SSE
Cosmos 2084 4.4 17:44:07 10° NW 17:48:16 48° WSW 17:52:18 10° SSE
Cosmos 1607 4.0 17:42:40 10° NW 17:48:53 81° WSW 17:55:10 10° SSE
Sich 1 2.9 17:47:02 10° N 17:51:24 82° E 17:55:45 10° S
CENTAUR R/B 4.4 17:46:40 10° NW 17:51:52 21° N 17:56:08 14° NE
Ariane Rocket 3.8 17:51:23 27° ENE 17:51:58 28° ENE 17:56:14 10° N
Cosmos 2278 4.3 17:47:59 10° SSE 17:53:00 34° ESE 17:54:51 27° ENE
Cosmos 1328 Rocket 4.1 17:49:33 10° SSE 17:53:33 35° E 17:54:25 32° ENE
Cosmos 1697 Rocket 3.0 17:49:00 10° S 17:54:18 43° ESE 17:57:08 25° NE
H-2A R/B 4.2 18:00:03 11° NNE 18:00:03 11° NNE 18:00:16 10° NNE
ATLAS 5 CENTAUR R/B 2.6 17:53:23 10° NW 17:59:11 76° SW 18:05:50 10° SSE
Cosmos 1151 Rocket 3.5 17:55:31 10° SSE 17:59:23 36° E 17:59:23 36° E
BREEZE-M DEB (TANK) 3.0 18:00:24 10° SW 18:05:31 37° SSE 18:06:06 34° SE
Cosmos 923 Rocket 3.9 18:02:48 10° S 18:07:56 62° ESE 18:10:51 26° NE
ATLAS 3B R/B 4.4 18:04:31 10° NW 18:08:40 17° N 18:11:27 13° NNE
Cosmos 1356 Rocket 4.1 18:09:08 10° SSW 18:13:12 55° WNW 18:17:22 10° N
YAOGAN 1 2.4 18:08:57 10° SSE 18:13:17 84° ENE 18:17:38 10° NNW
Cosmos 1624 Rocket 4.4 18:08:39 10° N 18:13:40 39° ENE 18:13:48 39° ENE
Cosmos 2056 Rocket 4.0 18:08:55 10° N 18:13:20 37° NE 18:13:20 37° NE
Cosmos 1470 Rocket 3.8 18:14:05 10° N 18:17:57 50° NE 18:17:57 50° NE
Cosmos 2346 Rocket 4.4 18:12:35 10° S 18:18:42 61° E 18:24:47 10° NNE
Cosmos 2034 Rocket 3.9 18:12:51 10° N 18:19:14 81° E 18:25:37 10° S
Lacrosse 4 Rocket 1.1 18:16:48 10° SSW 18:20:52 75° ESE 18:21:00 74° E
USA 116 4.1 18:21:51 19° NNE 18:25:08 89° WNW 18:30:09 10° SSW
NOAA 11 4.0 18:20:40 10° SSE 18:26:03 73° ENE 18:31:29 10° N
Meteor 2-11 Rocket 4.3 18:20:51 10° N 18:27:00 88° E 18:33:09 10° S
Cosmos 1656 4.0 18:23:37 10° SW 18:29:07 63° WNW 18:33:00 20° NNE
Cosmos 1633 3.8 18:26:10 10° NNW 18:29:37 41° W 18:33:03 10° SSW
CSL-04 Debris 4.4 18:25:52 10° S 18:31:20 71° WSW 18:36:51 10° NNW
SKYMED 2 4.5 18:28:34 10° N 18:32:46 48° WNW 18:36:56 10° SW
CZ-4 R/B 2.6 18:31:09 10° S 18:35:08 43° W 18:39:04 10° NNW
DMSP B5D1-3 4.4 18:37:39 45° NNE 18:39:17 80° ESE 18:44:26 10° SSW
Cosmos 724 4.1 18:33:38 10° NNW 18:39:31 79° NE 18:40:39 59° SE
Tsikada Rocket 3.9 18:34:23 10° S 18:40:43 76° E 18:47:09 10° NNE
Cosmos 1634 Rocket 4.1 18:35:25 10° N 18:40:42 50° NE 18:40:42 50° NE
USA 215 3.2 18:40:26 51° E 18:42:01 68° NNE 18:48:29 10° NW
Cosmos 1816 Rocket 4.4 18:41:44 10° S 18:48:04 89° ESE 18:54:30 10° N
CSL-04 Rocket 4.5 18:45:15 10° S 18:50:27 49° W 18:55:37 10° NNW
Cosmos 1939 Rocket 4.2 18:52:15 35° NNW 18:52:15 35° NNW 18:54:45 10° NNW
NOSS 2-3 (E) 4.0 18:48:11 10° SW 18:51:48 62° SW 18:51:48 62° SW
USA 229 DEB 4.4 18:48:56 10° WSW 18:55:18 48° NW 18:58:48 27° NNE
USA 229 4.4 18:49:02 10° WSW 18:55:24 48° NW 18:58:52 27° NNE
Cosmos 1980 Rocket 2.4 18:52:10 10° SSW 18:56:39 56° S 18:56:39 56° S
NOSS 3-1 (A) 3.7 18:54:40 10° SW 19:00:14 63° NW 19:01:51 47° N
Cosmos 2227 Rocket 4.2 18:55:43 10° NW 19:00:19 26° WSW 19:04:55 10° SSW
Cosmos 2297 Rocket 4.4 18:56:08 10° NW 19:00:34 24° WSW 19:04:59 10° SSW
NOSS 3-1 (C) 4.3 18:55:57 10° WSW 19:01:23 44° NW 19:03:50 31° N
NOSS 2-3 (D) 4.4 18:57:36 10° SW 19:00:45 48° SW 19:00:45 48° SW
Cosmos 1371 Rocket 4.2 18:58:39 10° NNW 19:03:21 67° WNW 19:03:21 67° WNW
Cosmos 2263 Rocket 3.7 19:20:25 10° NNW 19:22:54 27° NNW 19:22:54 27° NNW
Ariane Rocket 4.2 19:31:36 39° WNW 19:31:36 39° WNW 19:35:35 10° NNW
H-2A R/B 4.5 19:40:41 14° NNW 19:40:41 14° NNW 19:41:25 10° NNW
Cosmos 1697 Rocket 4.0 19:33:13 10° WSW 19:38:21 34° NW 19:38:55 34° NW
CENTAUR R/B 4.2 19:38:19 10° NNW 19:43:18 30° N 19:43:18 30° N
ATLAS 3B R/B 4.5 19:56:06 10° NNW 19:58:41 20° N 19:58:41 20° N
